Content
SEND FEEDBACK

Daily
Averages
Monthly
Summary
Canada

QUEBEC CITY, QUEBEC


Home > North America > Canada > Quebec
Elevation: 239 feet     Latitude: 46 48N     Longitude: 071 23W

WEATHER
 
SELECT A DAY
Number of Records: 192,604;   Date Range: 6/30/96 - 8/31/14
 
SHARE

PRINT THIS DATA

[ ← Previous Day ]
WEATHER ALMANAC - OCTOBER 28, 2013
[ Next Day → ]
[ °C ]   °F
Weather ElementAverageHighLow
Temperature33.5 °F41 °F (3:00 pm)30.2 °F (5:00 am)
Dewpoint28.9 °F33 °F (11:00 am)23 °F (5:00 pm)
Humidity83.1 %100 % (8:00 am)47 % (5:00 pm)
Barometer30.04 in30.35 in (11:00 pm)29.91 in (8:43 am)
Wind Speed6.5 mph23 mph (2:00 pm)
Wind Gust31.1 mph (2:00 pm)
Weather ElementAverage
Visibility12 mi
Wind DirectionSSW (217 °)

Weather ElementTotal
Precipitation---
Heating Degree Days29.4 (Base 65)
Averaged from 39 records on October 28, 2013
WEATHER CONDITIONS BREAKOUT
WIND DIRECTION BREAKOUT
WEATHER BY HOUR - OCTOBER 28, 2013
[ °C ]   °F
Local TimeTemperatureDewpointHumidityBarometerVisibilityWind DirectionWind SpeedGust SpeedPrecipitationEventsConditions
1:00 AM32.0 °F28.4 °F87 %29.94 in15.0 miWSW (250°)6.9 mphScattered Clouds
2:00 AM35.0 °F30.0 °F74 %29.94 inWSW (240°)5.8 mph
2:00 AM33.8 °F30.2 °F87 %29.95 in15.0 miSW (230°)6.9 mphMostly Cloudy
3:00 AM33.8 °F30.2 °F87 %29.95 in15.0 miSW (230°)8.1 mphMostly Cloudy
4:00 AM32.0 °F28.4 °F87 %29.94 in15.0 miWest (260°)5.8 mphMostly Cloudy
5:00 AM33.0 °F29.0 °F81 %29.94 inWSW (250°)4.6 mph
5:00 AM30.2 °F28.4 °F93 %29.94 in15.0 miWSW (240°)4.6 mphScattered Clouds
6:00 AM30.2 °F28.4 °F93 %29.94 in15.0 miWest (260°)3.5 mphScattered Clouds
7:00 AM32.0 °F28.4 °F87 %29.93 in15.0 miCalmSnowLight Snow Showers
7:29 AM33.8 °F30.2 °F87 %29.92 in2.2 miSW (230°)2.3 mphSnowLight Snow Showers
7:36 AM32.0 °F30.2 °F93 %29.92 in1.0 miSW (230°)2.3 mphSnowLight Snow Showers
7:49 AM32.0 °F30.2 °F93 %29.93 in1.0 miSSW (210°)2.3 mphSnowLight Snow Showers
8:00 AM32.0 °F32.0 °F98 %29.92 inCalm
8:00 AM32.0 °F32.0 °F100 %29.93 in0.8 miSSW (210°)5.8 mphSnowLight Snow Showers
8:08 AM32.0 °F30.2 °F93 %29.93 in0.8 miSSW (200°)4.6 mphSnowLight Snow Showers
8:43 AM32.0 °F32.0 °F100 %29.91 in0.6 miSE (130°)3.5 mphSnowSnow Showers
9:00 AM32.0 °F32.0 °F100 %29.92 in0.6 miCalmSnowSnow Showers
9:31 AM32.0 °F32.0 °F100 %29.92 in0.6 miNNE (20°)4.6 mphSnowSnow Showers
10:00 AM32.0 °F32.0 °F100 %29.92 in0.8 miNorth (10°)3.5 mphSnowLight Snow Showers
10:19 AM32.0 °F32.0 °F100 %29.93 in1.0 miNorth (350°)2.3 mphSnowLight Snow Showers
10:42 AM32.0 °F32.0 °F100 %29.94 in1.5 miCalmSnowLight Snow Showers
11:00 AM35.0 °F33.0 °F90 %29.94 inCalm
11:00 AM33.8 °F32.0 °F93 %29.94 in2.0 miWSW (250°)2.3 mphOvercast
11:27 AM33.8 °F32.0 °F93 %29.96 in5.0 miSW (220°)6.9 mphOvercast
12:00 PM33.8 °F32.0 °F93 %29.97 in15.0 miSW (220°)12.7 mphMostly Cloudy
1:00 PM39.2 °F30.2 °F70 %30.01 in30.0 miNW (310°)20.7 mph28.8 mphScattered Clouds
2:00 PM39.2 °F30.2 °F70 %30.06 in30.0 miWNW (300°)23.0 mph31.1 mphScattered Clouds
3:00 PM41.0 °F28.4 °F61 %30.12 in30.0 miNW (320°)16.1 mph27.6 mphScattered Clouds
4:00 PM39.2 °F26.6 °F61 %30.18 in30.0 miNW (310°)12.7 mph19.6 mphPartly Cloudy
5:00 PM35.6 °F23.0 °F60 %30.22 in30.0 miWNW (300°)11.5 mph18.4 mphScattered Clouds
5:00 PM37.0 °F24.0 °F47 %30.21 inWNW (300°)11.5 mph
6:00 PM35.6 °F23.0 °F60 %30.25 in20.0 miNW (310°)11.5 mph17.3 mphScattered Clouds
7:00 PM33.8 °F23.0 °F65 %30.29 in15.0 miWSW (250°)8.1 mphScattered Clouds
8:00 PM33.0 °F26.0 °F65 %30.31 inSW (230°)5.8 mph
8:00 PM32.0 °F24.8 °F75 %30.31 in15.0 miSW (230°)6.9 mphMostly Cloudy
9:00 PM30.2 °F24.8 °F80 %30.33 in15.0 miSW (230°)5.8 mphMostly Cloudy
10:00 PM32.0 °F24.8 °F75 %30.34 in15.0 miWSW (240°)8.1 mphMostly Cloudy
11:00 PM34.0 °F26.0 °F64 %30.35 inSW (230°)5.8 mph
11:00 PM32.0 °F26.6 °F80 %30.35 in15.0 miSW (230°)8.1 mphMostly Cloudy
Hourly data recorded from CYQB, located miles away from Quebec City, Quebec







STORIES FROM OUR PARTNERS